| time (UTC) | temp F | wind direction | speed knots | gust knots | rain 1hr in | rain 24hr in | rain mn in | humidity % | barometer mb |
| 20260906204030 | 100 | 61 | 5.2 | 11.3 | 0.00 | 0.00 | 0.00 | 35 | 1012.2 |
| 20260906203527 | 100 | 112 | 4.3 | 10.4 | 0.00 | 0.00 | 0.00 | 35 | 1012.2 |
| 20260906203050 | 100 | 27 | 5.2 | 13.0 | 0.00 | 0.00 | 0.00 | 35 | 1012.3 |
| 20260906202529 | 100 | 130 | 7.8 | 13.0 | 0.00 | 0.00 | 0.00 | 36 | 1012.5 |
| 20260906202029 | 100 | 155 | 5.2 | 9.6 | 0.00 | 0.00 | 0.00 | 35 | 1012.5 |
| 20260906201552 | 101 | 113 | 4.3 | 9.6 | 0.00 | 0.00 | 0.00 | 34 | 1012.4 |
| 20260906201028 | 101 | 256 | 4.3 | 9.6 | 0.00 | 0.00 | 0.00 | 34 | 1012.4 |
| 20260906200527 | 101 | 98 | 4.3 | 12.2 | 0.00 | 0.00 | 0.00 | 35 | 1012.5 |
| 20260906200045 | 101 | 75 | 3.5 | 12.2 | 0.00 | 0.00 | 0.00 | 34 | 1012.7 |
| 20260906195531 | 100 | 123 | 5.2 | 11.3 | 0.00 | 0.00 | 0.00 | 35 | 1012.8 |
| 20260906195033 | 100 | 94 | 6.1 | 11.3 | 0.00 | 0.00 | 0.00 | 34 | 1012.9 |
| 20260906194604 | 101 | 109 | 6.1 | 11.3 | 0.00 | 0.00 | 0.00 | 34 | 1012.9 |
| 20260906194028 | 101 | 109 | 3.5 | 10.4 | 0.00 | 0.00 | 0.00 | 36 | 1012.9 |
| 20260906193528 | 99 | 127 | 6.1 | 10.4 | 0.00 | 0.00 | 0.00 | 36 | 1013.0 |
| 20260906193051 | 99 | 79 | 5.2 | 10.4 | 0.00 | 0.00 | 0.00 | 37 | 1013.1 |
| 20260906192525 | 99 | 59 | 5.2 | 14.8 | 0.00 | 0.00 | 0.00 | 36 | 1013.1 |
| 20260906192031 | 99 | 94 | 7.0 | 14.8 | 0.00 | 0.00 | 0.00 | 36 | 1013.2 |
| 20260906191547 | 100 | 107 | 8.7 | 14.8 | 0.00 | 0.00 | 0.00 | 37 | 1013.3 |
| 20260906191028 | 100 | 158 | 7.0 | 14.8 | 0.00 | 0.00 | 0.00 | 37 | 1013.3 |
| 20260906190528 | 99 | 106 | 6.1 | 11.3 | 0.00 | 0.00 | 0.00 | 37 | 1013.4 |
| 20260906190047 | 99 | 118 | 1.7 | 10.4 | 0.00 | 0.00 | 0.00 | 37 | 1013.4 |
| 20260906185528 | 99 | 121 | 6.1 | 10.4 | 0.00 | 0.00 | 0.00 | 37 | 1013.5 |
| 20260906185028 | 99 | 106 | 7.0 | 14.8 | 0.00 | 0.00 | 0.00 | 37 | 1013.5 |
| 20260906184544 | 99 | 205 | 7.8 | 14.8 | 0.00 | 0.00 | 0.00 | 38 | 1013.6 |
| 20260906184026 | 99 | 104 | 7.8 | 13.0 | 0.00 | 0.00 | 0.00 | 39 | 1013.6 |
| 20260906183528 | 98 | 98 | 3.5 | 9.6 | 0.00 | 0.00 | 0.00 | 41 | 1013.8 |
| 20260906183102 | 99 | 117 | 5.2 | 13.9 | 0.00 | 0.00 | 0.00 | 40 | 1013.8 |
| 20260906182526 | 98 | 121 | 7.0 | 13.9 | 0.00 | 0.00 | 0.00 | 41 | 1013.8 |
| 20260906182026 | 99 | 144 | 2.6 | 7.8 | 0.00 | 0.00 | 0.00 | 40 | 1013.9 |
| 20260906181550 | 99 | 89 | 2.6 | 12.2 | 0.00 | 0.00 | 0.00 | 40 | 1014.0 |
| 20260906181027 | 99 | 231 | 6.1 | 12.2 | 0.00 | 0.00 | 0.00 | 39 | 1014.1 |
| 20260906180529 | 100 | 137 | 5.2 | 10.4 | 0.00 | 0.00 | 0.00 | 38 | 1014.2 |
| 20260906180103 | 99 | 60 | 0.0 | 9.6 | 0.00 | 0.00 | 0.00 | 40 | 1014.3 |
| 20260906175532 | 99 | 118 | 3.5 | 11.3 | 0.00 | 0.00 | 0.00 | 40 | 1014.3 |
| 20260906175031 | 98 | 114 | 6.1 | 11.3 | 0.00 | 0.00 | 0.00 | 41 | 1014.4 |
| 20260906174550 | 98 | 94 | 5.2 | 11.3 | 0.00 | 0.00 | 0.00 | 42 | 1014.5 |
| 20260906174029 | 98 | 124 | 5.2 | 8.7 | 0.00 | 0.00 | 0.00 | 41 | 1014.5 |
| 20260906173529 | 97 | 143 | 4.3 | 8.7 | 0.00 | 0.00 | 0.00 | 42 | 1014.7 |
| 20260906173049 | 96 | 44 | 0.9 | 7.8 | 0.00 | 0.00 | 0.00 | 44 | 1014.8 |
| 20260906172531 | 96 | 344 | 2.6 | 9.6 | 0.00 | 0.00 | 0.00 | 43 | 1014.9 |
| 20260906172028 | 96 | 40 | 2.6 | 9.6 | 0.00 | 0.00 | 0.00 | 44 | 1015.0 |
| 20260906171607 | 97 | 97 | 2.6 | 9.6 | 0.00 | 0.00 | 0.00 | 43 | 1015.0 |
| 20260906171032 | 97 | 10 | 2.6 | 7.8 | 0.00 | 0.00 | 0.00 | 42 | 1015.1 |
| 20260906170527 | 97 | 86 | 1.7 | 7.8 | 0.00 | 0.00 | 0.00 | 42 | 1015.2 |
| 20260906170057 | 97 | 207 | 1.7 | 7.8 | 0.00 | 0.00 | 0.00 | 43 | 1015.2 |
| 20260906165528 | 97 | 82 | 1.7 | 8.7 | 0.00 | 0.00 | 0.00 | 43 | 1015.2 |
| 20260906165029 | 97 | 182 | 3.5 | 10.4 | 0.00 | 0.00 | 0.00 | 43 | 1015.3 |
| 20260906164544 | 97 | 131 | 3.5 | 10.4 | 0.00 | 0.00 | 0.00 | 43 | 1015.3 |
| 20260906164028 | 97 | 173 | 3.5 | 9.6 | 0.00 | 0.00 | 0.00 | 43 | 1015.4 |
| 20260906163529 | 96 | 296 | 2.6 | 8.7 | 0.00 | 0.00 | 0.00 | 44 | 1015.4 |
| 20260906163052 | 96 | 85 | 2.6 | 8.7 | 0.00 | 0.00 | 0.00 | 43 | 1015.4 |
| 20260906162526 | 96 | 132 | 1.7 | 7.0 | 0.00 | 0.00 | 0.00 | 45 | 1015.3 |
| 20260906162028 | 95 | 159 | 2.6 | 8.7 | 0.00 | 0.00 | 0.00 | 46 | 1015.4 |
| 20260906161612 | 95 | 160 | 3.5 | 8.7 | 0.00 | 0.00 | 0.00 | 46 | 1015.4 |
| 20260906161027 | 94 | 88 | 3.5 | 7.8 | 0.00 | 0.00 | 0.00 | 47 | 1015.3 |
| 20260906160528 | 94 | 87 | 4.3 | 7.0 | 0.00 | 0.00 | 0.00 | 47 | 1015.3 |
| 20260906160049 | 94 | 126 | 3.5 | 7.8 | 0.00 | 0.00 | 0.00 | 47 | 1015.3 |
| 20260906155530 | 93 | 174 | 3.5 | 7.8 | 0.00 | 0.00 | 0.00 | 49 | 1015.3 |
| 20260906155027 | 92 | 121 | 1.7 | 7.0 | 0.00 | 0.00 | 0.00 | 49 | 1015.3 |
| 20260906154552 | 92 | 230 | 1.7 | 7.0 | 0.00 | 0.00 | 0.00 | 50 | 1015.4 |
| 20260906154030 | 92 | 198 | 3.5 | 7.0 | 0.00 | 0.00 | 0.00 | 50 | 1015.2 |
| 20260906153529 | 92 | 0 | 2.6 | 5.2 | 0.00 | 0.00 | 0.00 | 52 | 1015.3 |
| 20260906153107 | 91 | 246 | 0.9 | 4.3 | 0.00 | 0.00 | 0.00 | 53 | 1015.3 |
| 20260906152528 | 91 | 236 | 1.7 | 6.1 | 0.00 | 0.00 | 0.00 | 53 | 1015.2 |
| 20260906152028 | 90 | 197 | 3.5 | 6.1 | 0.00 | 0.00 | 0.00 | 54 | 1015.2 |
| 20260906151546 | 89 | 204 | 3.5 | 6.1 | 0.00 | 0.00 | 0.00 | 55 | 1015.2 |
| 20260906151028 | 89 | 156 | 2.6 | 7.0 | 0.00 | 0.00 | 0.00 | 56 | 1015.2 |
| 20260906150528 | 88 | 214 | 2.6 | 7.0 | 0.00 | 0.00 | 0.00 | 57 | 1015.1 |
| 20260906150046 | 88 | 213 | 3.5 | 7.0 | 0.00 | 0.00 | 0.00 | 57 | 1015.1 |
| 20260906145530 | 88 | 223 | 2.6 | 5.2 | 0.00 | 0.00 | 0.00 | 57 | 1015.2 |
| 20260906145030 | 87 | 186 | 2.6 | 5.2 | 0.00 | 0.00 | 0.00 | 58 | 1015.2 |
| 20260906144551 | 87 | 188 | 3.5 | 6.1 | 0.00 | 0.00 | 0.00 | 58 | 1015.2 |
| 20260906144029 | 87 | 236 | 3.5 | 6.1 | 0.00 | 0.00 | 0.00 | 59 | 1015.3 |
| 20260906143530 | 87 | 245 | 2.6 | 7.8 | 0.00 | 0.00 | 0.00 | 59 | 1015.3 |
| 20260906143050 | 86 | 225 | 3.5 | 7.8 | 0.00 | 0.00 | 0.00 | 59 | 1015.3 |
| 20260906142529 | 86 | 193 | 2.6 | 5.2 | 0.00 | 0.00 | 0.00 | 60 | 1015.3 |
| 20260906142028 | 85 | 184 | 2.6 | 5.2 | 0.00 | 0.00 | 0.00 | 61 | 1015.2 |
| 20260906141603 | 85 | 236 | 2.6 | 5.2 | 0.00 | 0.00 | 0.00 | 61 | 1015.2 |
| 20260906141028 | 84 | 185 | 1.7 | 4.3 | 0.00 | 0.00 | 0.00 | 62 | 1015.1 |
| 20260906140528 | 84 | 240 | 1.7 | 4.3 | 0.00 | 0.00 | 0.00 | 63 | 1015.1 |
| 20260906140044 | 83 | 165 | 2.6 | 4.3 | 0.00 | 0.00 | 0.00 | 65 | 1015.0 |
| 20260906135528 | 82 | 155 | 1.7 | 4.3 | 0.00 | 0.00 | 0.00 | 67 | 1015.0 |
| 20260906135029 | 81 | 124 | 0.9 | 2.6 | 0.00 | 0.00 | 0.00 | 68 | 1015.1 |
| 20260906134550 | 80 | 130 | 0.0 | 1.7 | 0.00 | 0.00 | 0.00 | 69 | 1015.0 |
| 20260906134030 | 79 | 0 | 0.0 | 1.7 | 0.00 | 0.00 | 0.00 | 70 | 1015.0 |
| 20260906133526 | 78 | 0 | 0.0 | 1.7 | 0.00 | 0.00 | 0.00 | 71 | 1015.0 |
| 20260906133057 | 77 | 0 | 0.0 | 2.6 | 0.00 | 0.00 | 0.00 | 72 | 1015.0 |
| 20260906132530 | 77 | 0 | 0.9 | 3.5 | 0.00 | 0.00 | 0.00 | 72 | 1015.0 |
| 20260906132027 | 76 | 130 | 1.7 | 3.5 | 0.00 | 0.00 | 0.00 | 73 | 1015.0 |
| 20260906131600 | 76 | 161 | 0.9 | 3.5 | 0.00 | 0.00 | 0.00 | 74 | 1015.0 |
| 20260906131028 | 76 | 161 | 0.9 | 3.5 | 0.00 | 0.00 | 0.00 | 74 | 1014.9 |
| 20260906130528 | 75 | 161 | 1.7 | 3.5 | 0.00 | 0.00 | 0.00 | 75 | 1014.8 |
| 20260906130054 | 75 | 161 | 0.9 | 3.5 | 0.00 | 0.00 | 0.00 | 75 | 1014.8 |
| 20260906125528 | 75 | 161 | 0.9 | 3.5 | 0.00 | 0.00 | 0.00 | 75 | 1014.6 |
| 20260906125027 | 75 | 161 | 0.0 | 1.7 | 0.00 | 0.00 | 0.00 | 75 | 1014.5 |
| 20260906124552 | 74 | 0 | 0.0 | 0.0 | 0.00 | 0.00 | 0.00 | 75 | 1014.5 |
| 20260906124029 | 74 | 0 | 0.0 | 1.7 | 0.00 | 0.00 | 0.00 | 75 | 1014.5 |
| 20260906123528 | 74 | 0 | 0.0 | 1.7 | 0.00 | 0.00 | 0.00 | 76 | 1014.5 |
| 20260906123055 | 74 | 0 | 0.0 | 1.7 | 0.00 | 0.00 | 0.00 | 75 | 1014.4 |
| 20260906122526 | 74 | 0 | 0.0 | 1.7 | 0.00 | 0.00 | 0.00 | 75 | 1014.4 |
| 20260906122025 | 74 | 161 | 0.0 | 1.7 | 0.00 | 0.00 | 0.00 | 75 | 1014.3 |
| 20260906121548 | 74 | 0 | 0.0 | 0.0 | 0.00 | 0.00 | 0.00 | 75 | 1014.2 |
| 20260906121029 | 74 | 0 | 0.0 | 0.0 | 0.00 | 0.00 | 0.00 | 76 | 1014.0 |
| 20260906120529 | 75 | 0 | 0.0 | 0.0 | 0.00 | 0.00 | 0.00 | 75 | 1014.0 |
| 20260906115527 | 75 | 0 | 0.0 | 0.0 | 0.00 | 0.00 | 0.00 | 75 | 1014.0 |
| 20260906115028 | 75 | 0 | 0.0 | 1.7 | 0.00 | 0.00 | 0.00 | 74 | 1013.9 |
| 20260906114553 | 75 | 0 | 0.0 | 1.7 | 0.00 | 0.00 | 0.00 | 74 | 1013.8 |
| 20260906114025 | 76 | 161 | 0.0 | 1.7 | 0.00 | 0.00 | 0.00 | 74 | 1013.8 |
| 20260906113526 | 76 | 161 | 0.9 | 1.7 | 0.00 | 0.00 | 0.00 | 72 | 1013.8 |
| 20260906113050 | 76 | 161 | 0.0 | 1.7 | 0.00 | 0.00 | 0.00 | 71 | 1013.6 |
| 20260906112529 | 76 | 0 | 0.0 | 1.7 | 0.00 | 0.00 | 0.00 | 71 | 1013.6 |
| 20260906112026 | 76 | 0 | 0.0 | 1.7 | 0.00 | 0.00 | 0.00 | 71 | 1013.5 |
| 20260906111547 | 76 | 161 | 0.9 | 1.7 | 0.00 | 0.00 | 0.00 | 72 | 1013.5 |
| 20260906111027 | 76 | 161 | 0.9 | 3.5 | 0.00 | 0.00 | 0.00 | 71 | 1013.5 |
| 20260906110528 | 76 | 0 | 0.9 | 3.5 | 0.00 | 0.00 | 0.00 | 71 | 1013.4 |
| 20260906110043 | 76 | 161 | 0.9 | 3.5 | 0.00 | 0.00 | 0.00 | 71 | 1013.4 |
| 20260906105528 | 76 | 161 | 1.7 | 3.5 | 0.00 | 0.00 | 0.00 | 71 | 1013.5 |
| 20260906105027 | 76 | 161 | 2.6 | 3.5 | 0.00 | 0.00 | 0.00 | 71 | 1013.5 |
| 20260906104550 | 76 | 164 | 0.9 | 3.5 | 0.00 | 0.00 | 0.00 | 71 | 1013.6 |
| 20260906104026 | 76 | 164 | 0.0 | 1.7 | 0.00 | 0.00 | 0.00 | 71 | 1013.4 |
| 20260906103527 | 77 | 0 | 0.0 | 2.6 | 0.00 | 0.00 | 0.00 | 70 | 1013.3 |
| 20260906103050 | 77 | 0 | 0.0 | 3.5 | 0.00 | 0.00 | 0.00 | 70 | 1013.4 |
| 20260906102529 | 77 | 164 | 0.9 | 3.5 | 0.00 | 0.00 | 0.00 | 70 | 1013.3 |
| 20260906102025 | 77 | 164 | 0.9 | 3.5 | 0.00 | 0.00 | 0.00 | 70 | 1013.3 |
| 20260906101544 | 77 | 0 | 0.0 | 0.0 | 0.00 | 0.00 | 0.00 | 70 | 1013.3 |
| 20260906101027 | 77 | 0 | 0.0 | 0.9 | 0.00 | 0.00 | 0.00 | 70 | 1013.3 |
| 20260906100533 | 77 | 0 | 0.0 | 0.9 | 0.00 | 0.00 | 0.00 | 70 | 1013.4 |
| 20260906100054 | 77 | 0 | 0.0 | 0.0 | 0.00 | 0.00 | 0.00 | 69 | 1013.4 |
| 20260906095529 | 77 | 0 | 0.0 | 0.0 | 0.00 | 0.00 | 0.00 | 69 | 1013.4 |
| 20260906095026 | 77 | 0 | 0.0 | 0.0 | 0.00 | 0.00 | 0.00 | 69 | 1013.4 |
| 20260906094557 | 77 | 0 | 0.0 | 0.0 | 0.00 | 0.00 | 0.00 | 69 | 1013.4 |
| 20260906094028 | 77 | 0 | 0.0 | 0.0 | 0.00 | 0.00 | 0.00 | 69 | 1013.3 |
| 20260906093529 | 77 | 0 | 0.0 | 0.0 | 0.00 | 0.00 | 0.00 | 69 | 1013.3 |
| 20260906093051 | 77 | 0 | 0.0 | 0.0 | 0.00 | 0.00 | 0.00 | 69 | 1013.3 |
| 20260906092531 | 77 | 0 | 0.0 | 0.0 | 0.00 | 0.00 | 0.00 | 69 | 1013.2 |
| 20260906092028 | 77 | 0 | 0.0 | 0.0 | 0.00 | 0.00 | 0.00 | 69 | 1013.3 |
| 20260906091550 | 77 | 0 | 0.0 | 0.0 | 0.00 | 0.00 | 0.00 | 69 | 1013.2 |
| 20260906091027 | 77 | 0 | 0.0 | 0.0 | 0.00 | 0.00 | 0.00 | 68 | 1013.3 |
| 20260906090530 | 77 | 0 | 0.0 | 0.0 | 0.00 | 0.00 | 0.00 | 68 | 1013.2 |
| 20260906090056 | 77 | 0 | 0.0 | 0.9 | 0.00 | 0.00 | 0.00 | 68 | 1013.2 |
| 20260906085528 | 77 | 0 | 0.0 | 3.5 | 0.00 | 0.00 | 0.00 | 68 | 1013.2 |
| 20260906085028 | 78 | 0 | 0.0 | 3.5 | 0.00 | 0.00 | 0.00 | 68 | 1013.1 |
| 20260906084547 | 78 | 164 | 0.9 | 3.5 | 0.00 | 0.00 | 0.00 | 68 | 1013.2 |
| 20260906084035 | 78 | 164 | 0.0 | 3.5 | 0.00 | 0.00 | 0.00 | 68 | 1013.1 |
| 20260906083529 | 78 | 164 | 0.9 | 4.3 | 0.00 | 0.00 | 0.00 | 68 | 1013.2 |
| 20260906083047 | 78 | 164 | 1.7 | 4.3 | 0.00 | 0.00 | 0.00 | 68 | 1013.2 |
| 20260906082527 | 78 | 119 | 0.9 | 3.5 | 0.00 | 0.00 | 0.00 | 68 | 1013.2 |
| 20260906082028 | 78 | 121 | 1.7 | 3.5 | 0.00 | 0.00 | 0.00 | 68 | 1013.2 |
| 20260906081549 | 78 | 67 | 1.7 | 3.5 | 0.00 | 0.00 | 0.00 | 67 | 1013.2 |
| 20260906081027 | 79 | 60 | 1.7 | 3.5 | 0.00 | 0.00 | 0.00 | 66 | 1013.1 |
| 20260906080529 | 79 | 65 | 0.9 | 1.7 | 0.00 | 0.00 | 0.00 | 65 | 1013.1 |
| 20260906080104 | 80 | 0 | 0.0 | 0.9 | 0.00 | 0.00 | 0.00 | 65 | 1013.0 |
| 20260906075528 | 80 | 0 | 0.0 | 1.7 | 0.00 | 0.00 | 0.00 | 64 | 1013.0 |
| 20260906075028 | 80 | 65 | 0.0 | 1.7 | 0.00 | 0.00 | 0.00 | 63 | 1013.0 |
| 20260906074551 | 81 | 0 | 0.0 | 1.7 | 0.00 | 0.00 | 0.00 | 62 | 1013.0 |
| 20260906074030 | 81 | 0 | 0.0 | 2.6 | 0.00 | 0.00 | 0.00 | 62 | 1013.0 |
| 20260906073528 | 81 | 65 | 0.9 | 2.6 | 0.00 | 0.00 | 0.00 | 61 | 1013.0 |
| 20260906073047 | 82 | 65 | 0.9 | 2.6 | 0.00 | 0.00 | 0.00 | 60 | 1013.0 |
| 20260906072531 | 83 | 65 | 0.9 | 2.6 | 0.00 | 0.00 | 0.00 | 59 | 1012.8 |
| 20260906072027 | 84 | 65 | 0.9 | 4.3 | 0.00 | 0.00 | 0.00 | 57 | 1012.9 |
| 20260906071549 | 85 | 0 | 0.0 | 4.3 | 0.00 | 0.00 | 0.00 | 55 | 1013.0 |
| 20260906071028 | 85 | 186 | 1.7 | 4.3 | 0.00 | 0.00 | 0.00 | 54 | 1013.0 |
| 20260906070531 | 85 | 204 | 0.0 | 5.2 | 0.00 | 0.00 | 0.00 | 54 | 1013.0 |
| 20260906070045 | 85 | 218 | 2.6 | 5.2 | 0.00 | 0.00 | 0.00 | 54 | 1013.0 |
| 20260906065528 | 85 | 206 | 2.6 | 5.2 | 0.00 | 0.00 | 0.00 | 54 | 1012.9 |
| 20260906065031 | 85 | 219 | 2.6 | 5.2 | 0.00 | 0.00 | 0.00 | 54 | 1012.9 |
| 20260906064552 | 85 | 225 | 2.6 | 5.2 | 0.00 | 0.00 | 0.00 | 54 | 1013.0 |
| 20260906064026 | 85 | 0 | 1.7 | 5.2 | 0.00 | 0.00 | 0.00 | 54 | 1013.0 |
| 20260906063528 | 85 | 213 | 3.5 | 6.1 | 0.00 | 0.00 | 0.00 | 53 | 1013.0 |
| 20260906063047 | 86 | 196 | 3.5 | 6.1 | 0.00 | 0.00 | 0.00 | 53 | 1012.9 |
| 20260906062530 | 86 | 204 | 2.6 | 7.0 | 0.00 | 0.00 | 0.00 | 53 | 1012.9 |
| 20260906062027 | 86 | 198 | 3.5 | 7.0 | 0.00 | 0.00 | 0.00 | 53 | 1012.9 |
| 20260906061549 | 86 | 211 | 3.5 | 7.0 | 0.00 | 0.00 | 0.00 | 53 | 1013.0 |
| 20260906061027 | 86 | 202 | 3.5 | 7.0 | 0.00 | 0.00 | 0.00 | 53 | 1013.0 |
| 20260906060529 | 86 | 198 | 4.3 | 7.0 | 0.00 | 0.00 | 0.00 | 52 | 1013.1 |
| 20260906060054 | 86 | 198 | 4.3 | 7.0 | 0.00 | 0.00 | 0.00 | 52 | 1013.0 |
| 20260906055527 | 86 | 184 | 3.5 | 7.0 | 0.00 | 0.00 | 0.00 | 52 | 1013.1 |
| 20260906055029 | 86 | 194 | 3.5 | 7.8 | 0.00 | 0.00 | 0.00 | 52 | 1013.0 |
| 20260906054605 | 86 | 192 | 4.3 | 7.8 | 0.00 | 0.00 | 0.00 | 52 | 1012.9 |
| 20260906054026 | 86 | 181 | 4.3 | 7.0 | 0.00 | 0.00 | 0.00 | 52 | 1012.8 |
| 20260906053528 | 86 | 199 | 4.3 | 7.8 | 0.00 | 0.00 | 0.00 | 52 | 1012.8 |
| 20260906053050 | 86 | 190 | 4.3 | 7.8 | 0.00 | 0.00 | 0.00 | 51 | 1012.7 |
| 20260906052527 | 86 | 171 | 4.3 | 7.8 | 0.00 | 0.00 | 0.00 | 51 | 1012.7 |
| 20260906052029 | 86 | 203 | 5.2 | 7.8 | 0.00 | 0.00 | 0.00 | 51 | 1012.8 |
| 20260906051545 | 87 | 190 | 5.2 | 8.7 | 0.00 | 0.00 | 0.00 | 51 | 1012.8 |
| 20260906051029 | 87 | 186 | 5.2 | 8.7 | 0.00 | 0.00 | 0.00 | 50 | 1012.8 |
| 20260906050529 | 87 | 207 | 4.3 | 7.8 | 0.00 | 0.00 | 0.00 | 50 | 1012.8 |
| 20260906050057 | 87 | 175 | 4.3 | 8.7 | 0.00 | 0.00 | 0.00 | 50 | 1012.8 |
| 20260906045529 | 87 | 200 | 4.3 | 8.7 | 0.00 | 0.00 | 0.00 | 50 | 1012.8 |
| 20260906045029 | 87 | 204 | 4.3 | 7.0 | 0.00 | 0.00 | 0.00 | 50 | 1012.8 |
| 20260906044551 | 86 | 201 | 4.3 | 7.0 | 0.00 | 0.00 | 0.00 | 50 | 1012.8 |
| 20260906044026 | 86 | 190 | 3.5 | 7.0 | 0.00 | 0.00 | 0.00 | 51 | 1012.9 |
| 20260906043529 | 86 | 167 | 3.5 | 7.0 | 0.00 | 0.00 | 0.00 | 50 | 1012.9 |
| 20260906043045 | 87 | 165 | 3.5 | 6.1 | 0.00 | 0.00 | 0.00 | 50 | 1012.8 |
| 20260906042527 | 87 | 204 | 3.5 | 6.1 | 0.00 | 0.00 | 0.00 | 50 | 1012.9 |
| 20260906042027 | 87 | 199 | 2.6 | 7.0 | 0.00 | 0.00 | 0.00 | 50 | 1012.8 |
| 20260906041546 | 87 | 188 | 3.5 | 7.0 | 0.00 | 0.00 | 0.00 | 50 | 1012.8 |
| 20260906041029 | 87 | 142 | 2.6 | 6.1 | 0.00 | 0.00 | 0.00 | 50 | 1012.9 |
| 20260906040528 | 87 | 173 | 3.5 | 6.1 | 0.00 | 0.00 | 0.00 | 50 | 1012.9 |
| 20260906040053 | 87 | 167 | 2.6 | 5.2 | 0.00 | 0.00 | 0.00 | 50 | 1012.9 |
| 20260906035527 | 87 | 192 | 2.6 | 5.2 | 0.00 | 0.00 | 0.00 | 50 | 1012.9 |
| 20260906035026 | 87 | 150 | 2.6 | 5.2 | 0.00 | 0.00 | 0.00 | 50 | 1013.0 |
| 20260906034559 | 87 | 186 | 2.6 | 5.2 | 0.00 | 0.00 | 0.00 | 50 | 1013.0 |
| 20260906034026 | 87 | 161 | 1.7 | 4.3 | 0.00 | 0.00 | 0.00 | 50 | 1013.0 |
| 20260906033529 | 87 | 167 | 1.7 | 4.3 | 0.00 | 0.00 | 0.00 | 50 | 1013.0 |
| 20260906033049 | 87 | 177 | 1.7 | 4.3 | 0.00 | 0.00 | 0.00 | 50 | 1012.9 |
| 20260906032527 | 87 | 184 | 2.6 | 4.3 | 0.00 | 0.00 | 0.00 | 50 | 1012.9 |
| 20260906032028 | 87 | 171 | 2.6 | 5.2 | 0.00 | 0.00 | 0.00 | 50 | 1012.8 |
| 20260906031553 | 87 | 165 | 2.6 | 5.2 | 0.00 | 0.00 | 0.00 | 50 | 1012.8 |
| 20260906031027 | 87 | 169 | 0.9 | 3.5 | 0.00 | 0.00 | 0.00 | 50 | 1012.9 |
| 20260906030530 | 87 | 169 | 0.9 | 3.5 | 0.00 | 0.00 | 0.00 | 50 | 1012.9 |
| 20260906030053 | 87 | 169 | 0.9 | 3.5 | 0.00 | 0.00 | 0.00 | 50 | 1012.9 |
| 20260906025528 | 87 | 169 | 1.7 | 4.3 | 0.00 | 0.00 | 0.00 | 50 | 1012.9 |
| 20260906025027 | 88 | 169 | 1.7 | 4.3 | 0.00 | 0.00 | 0.00 | 49 | 1012.8 |
| 20260906024552 | 88 | 153 | 1.7 | 3.5 | 0.00 | 0.00 | 0.00 | 49 | 1012.8 |
| 20260906024027 | 88 | 165 | 1.7 | 3.5 | 0.00 | 0.00 | 0.00 | 48 | 1012.7 |
| 20260906023529 | 89 | 165 | 1.7 | 3.5 | 0.00 | 0.00 | 0.00 | 48 | 1012.6 |
| 20260906023044 | 89 | 165 | 0.9 | 3.5 | 0.00 | 0.00 | 0.00 | 48 | 1012.5 |
| 20260906022527 | 89 | 165 | 0.9 | 3.5 | 0.00 | 0.00 | 0.00 | 47 | 1012.5 |
| 20260906022026 | 89 | 165 | 0.9 | 3.5 | 0.00 | 0.00 | 0.00 | 47 | 1012.5 |
| 20260906021547 | 89 | 165 | 1.7 | 3.5 | 0.00 | 0.00 | 0.00 | 47 | 1012.4 |
| 20260906021029 | 90 | 165 | 0.0 | 1.7 | 0.00 | 0.00 | 0.00 | 47 | 1012.5 |
| 20260906020530 | 90 | 0 | 0.9 | 2.6 | 0.00 | 0.00 | 0.00 | 46 | 1012.3 |
| 20260906020047 | 90 | 165 | 0.9 | 3.5 | 0.00 | 0.00 | 0.00 | 46 | 1012.2 |
| 20260906015528 | 90 | 165 | 1.7 | 4.3 | 0.00 | 0.00 | 0.00 | 46 | 1012.2 |
| 20260906015029 | 91 | 165 | 1.7 | 4.3 | 0.00 | 0.00 | 0.00 | 46 | 1012.1 |
| 20260906014555 | 91 | 167 | 2.6 | 4.3 | 0.00 | 0.00 | 0.00 | 45 | 1011.9 |
| 20260906014033 | 91 | 155 | 1.7 | 4.3 | 0.00 | 0.00 | 0.00 | 45 | 1011.9 |
| 20260906013526 | 92 | 153 | 0.9 | 3.5 | 0.00 | 0.00 | 0.00 | 44 | 1011.9 |
| 20260906013052 | 92 | 172 | 1.7 | 4.3 | 0.00 | 0.00 | 0.00 | 44 | 1011.8 |
| 20260906012529 | 93 | 157 | 1.7 | 4.3 | 0.00 | 0.00 | 0.00 | 43 | 1011.8 |
| 20260906012026 | 93 | 161 | 1.7 | 4.3 | 0.00 | 0.00 | 0.00 | 43 | 1011.6 |
| 20260906011550 | 93 | 161 | 1.7 | 4.3 | 0.00 | 0.00 | 0.00 | 42 | 1011.6 |
| 20260906011025 | 94 | 168 | 1.7 | 3.5 | 0.00 | 0.00 | 0.00 | 42 | 1011.6 |
| 20260906010526 | 94 | 162 | 1.7 | 4.3 | 0.00 | 0.00 | 0.00 | 41 | 1011.6 |
| 20260906010118 | 94 | 162 | 1.7 | 4.3 | 0.00 | 0.00 | 0.00 | 41 | 1011.6 |
| 20260906005529 | 95 | 161 | 1.7 | 4.3 | 0.00 | 0.00 | 0.00 | 40 | 1011.5 |
| 20260906005026 | 95 | 131 | 2.6 | 6.1 | 0.00 | 0.00 | 0.00 | 40 | 1011.5 |
| 20260906004556 | 96 | 126 | 3.5 | 6.1 | 0.00 | 0.00 | 0.00 | 40 | 1011.4 |
| 20260906004032 | 96 | 134 | 2.6 | 7.0 | 0.00 | 0.00 | 0.00 | 39 | 1011.4 |
| 20260906003528 | 96 | 123 | 2.6 | 7.8 | 0.00 | 0.00 | 0.00 | 39 | 1011.3 |
| 20260906003053 | 96 | 130 | 3.5 | 7.8 | 0.00 | 0.00 | 0.00 | 39 | 1011.3 |
| 20260906002528 | 97 | 125 | 4.3 | 7.8 | 0.00 | 0.00 | 0.00 | 38 | 1011.3 |
| 20260906002027 | 97 | 129 | 3.5 | 7.8 | 0.00 | 0.00 | 0.00 | 38 | 1011.3 |
| 20260906001600 | 97 | 132 | 4.3 | 8.7 | 0.00 | 0.00 | 0.00 | 38 | 1011.3 |
| 20260906001028 | 97 | 132 | 5.2 | 8.7 | 0.00 | 0.00 | 0.00 | 37 | 1011.3 |
| 20260906000529 | 98 | 126 | 5.2 | 8.7 | 0.00 | 0.00 | 0.00 | 37 | 1011.3 |
| 20260906000047 | 98 | 101 | 4.3 | 9.6 | 0.00 | 0.00 | 0.00 | 37 | 1011.2 |
| 20260905235530 | 98 | 119 | 4.3 | 9.6 | 0.00 | 0.00 | 0.00 | 37 | 1011.1 |
| 20260905235028 | 98 | 138 | 6.1 | 9.6 | 0.00 | 0.00 | 0.00 | 37 | 1011.1 |
| 20260905234556 | 98 | 147 | 5.2 | 9.6 | 0.00 | 0.00 | 0.00 | 36 | 1011.0 |
| 20260905234027 | 98 | 133 | 5.2 | 10.4 | 0.00 | 0.00 | 0.00 | 37 | 1011.1 |
| 20260905233528 | 98 | 151 | 7.0 | 10.4 | 0.00 | 0.00 | 0.00 | 36 | 1011.0 |
| 20260905233050 | 99 | 134 | 5.2 | 13.0 | 0.00 | 0.00 | 0.00 | 36 | 1010.9 |
| 20260905232530 | 98 | 162 | 5.2 | 13.0 | 0.00 | 0.00 | 0.00 | 36 | 1011.0 |
| 20260905232027 | 99 | 144 | 6.1 | 9.6 | 0.00 | 0.00 | 0.00 | 36 | 1010.9 |
| 20260905231607 | 99 | 123 | 3.5 | 12.2 | 0.00 | 0.00 | 0.00 | 36 | 1010.9 |
| 20260905231031 | 99 | 132 | 7.0 | 12.2 | 0.00 | 0.00 | 0.00 | 36 | 1010.9 |
| 20260905230528 | 99 | 139 | 6.1 | 12.2 | 0.00 | 0.00 | 0.00 | 36 | 1010.9 |
| 20260905225535 | 99 | 140 | 7.8 | 13.0 | 0.00 | 0.00 | 0.00 | 35 | 1010.8 |
| 20260905225027 | 99 | 130 | 6.1 | 13.9 | 0.00 | 0.00 | 0.00 | 36 | 1010.9 |
| 20260905224551 | 99 | 134 | 7.8 | 13.9 | 0.00 | 0.00 | 0.00 | 36 | 1010.9 |
| 20260905224026 | 99 | 130 | 7.0 | 12.2 | 0.00 | 0.00 | 0.00 | 36 | 1011.0 |
| 20260905223529 | 99 | 84 | 3.5 | 9.6 | 0.00 | 0.00 | 0.00 | 36 | 1010.9 |
| 20260905223054 | 99 | 117 | 6.1 | 10.4 | 0.00 | 0.00 | 0.00 | 36 | 1011.0 |
| 20260905222530 | 99 | 107 | 3.5 | 10.4 | 0.00 | 0.00 | 0.00 | 36 | 1010.9 |
| 20260905222029 | 99 | 123 | 7.0 | 11.3 | 0.00 | 0.00 | 0.00 | 36 | 1010.9 |
| 20260905221600 | 99 | 132 | 4.3 | 11.3 | 0.00 | 0.00 | 0.00 | 37 | 1011.0 |
| 20260905221028 | 99 | 142 | 5.2 | 11.3 | 0.00 | 0.00 | 0.00 | 37 | 1010.9 |
| 20260905220532 | 99 | 127 | 3.5 | 11.3 | 0.00 | 0.00 | 0.00 | 36 | 1011.0 |
| 20260905220058 | 99 | 138 | 7.0 | 12.2 | 0.00 | 0.00 | 0.00 | 36 | 1011.0 |
| 20260905215529 | 98 | 125 | 7.8 | 14.8 | 0.00 | 0.00 | 0.00 | 36 | 1011.0 |
| 20260905215027 | 98 | 96 | 7.8 | 14.8 | 0.00 | 0.00 | 0.00 | 37 | 1011.0 |
| 20260905214550 | 99 | 74 | 6.1 | 11.3 | 0.00 | 0.00 | 0.00 | 36 | 1011.1 |
| 20260905214028 | 99 | 86 | 7.0 | 11.3 | 0.00 | 0.00 | 0.00 | 35 | 1011.2 |
| 20260905213528 | 99 | 103 | 6.1 | 11.3 | 0.00 | 0.00 | 0.00 | 36 | 1011.2 |
| 20260905213049 | 99 | 136 | 2.6 | 12.2 | 0.00 | 0.00 | 0.00 | 36 | 1011.4 |
| 20260905212533 | 99 | 133 | 7.0 | 13.0 | 0.00 | 0.00 | 0.00 | 36 | 1011.4 |
| 20260905212026 | 99 | 130 | 8.7 | 13.0 | 0.00 | 0.00 | 0.00 | 36 | 1011.5 |
| 20260905211554 | 98 | 144 | 6.1 | 13.0 | 0.00 | 0.00 | 0.00 | 37 | 1011.5 |
| 20260905211029 | 99 | 80 | 5.2 | 13.0 | 0.00 | 0.00 | 0.00 | 37 | 1011.5 |
| 20260905210528 | 99 | 122 | 7.8 | 13.0 | 0.00 | 0.00 | 0.00 | 36 | 1011.6 |
| 20260905210110 | 99 | 124 | 4.3 | 13.9 | 0.00 | 0.00 | 0.00 | 36 | 1011.7 |
| 20260905205528 | 99 | 110 | 7.8 | 13.9 | 0.00 | 0.00 | 0.00 | 35 | 1011.9 |
| 20260905205029 | 99 | 160 | 7.0 | 13.9 | 0.00 | 0.00 | 0.00 | 37 | 1011.9 |
| 20260905204546 | 99 | 102 | 6.1 | 14.8 | 0.00 | 0.00 | 0.00 | 38 | 1012.0 |